CST,Max TemperatureF,Mean TemperatureF,Min TemperatureF,Max Dew PointF,MeanDew PointF,Min DewpointF,Max Humidity, Mean Humidity, Min Humidity, Max Sea Level PressureIn, Mean Sea Level PressureIn, Min Sea Level PressureIn, Max VisibilityMiles, Mean VisibilityMiles, Min VisibilityMiles, Max Wind SpeedMPH, Mean Wind SpeedMPH, Max Gust SpeedMPH,PrecipitationIn, CloudCover, Events, WindDirDegrees
2013-1-1,23,18,14,21,17,12,93,89,86,30.24,30.18,30.06,10,9,5,7,4,,0.00,6,,342
2013-1-2,33,24,15,27,20,12,93,84,70,30.33,30.23,30.17,10,10,7,15,4,,0.00,0,,312
2013-1-3,33,25,17,21,19,14,93,77,56,30.44,30.37,30.32,10,10,10,10,7,,0.00,1,,283
2013-1-4,35,29,23,27,24,18,86,76,60,30.35,30.26,30.14,10,10,10,20,12,24,0.00,5,,228
2013-1-5,42,32,23,27,21,14,93,70,38,30.37,30.17,30.07,10,10,10,21,12,24,0.00,0,,287
2013-1-6,48,34,21,27,21,18,93,67,32,30.41,30.33,30.22,10,10,10,14,8,17,0.00,0,,251
2013-1-7,50,40,30,25,22,19,65,53,35,30.22,30.09,29.95,10,10,10,23,14,31,0.00,0,,201
2013-1-8,55,42,30,34,27,21,87,64,40,30.19,29.99,29.92,10,10,10,18,13,23,0.00,0,,237
2013-1-9,48,37,26,36,29,23,100,78,37,30.37,30.24,30.11,10,9,2,23,11,29,0.00,4,Rain,22
2013-1-10,42,38,35,37,36,34,100,92,81,30.12,29.88,29.73,10,6,0,17,8,21,0.00,6,Fog-Rain-Snow,256
2013-1-11,59,46,32,36,29,14,87,55,36,29.86,29.68,29.60,10,10,10,39,20,48,0.00,0,,244
2013-1-12,32,23,12,23,19,10,93,79,51,30.04,29.95,29.87,10,9,0,17,10,22,0.00,7,Snow,21
2013-1-13,23,14,6,14,10,3,92,79,63,30.22,30.16,30.03,10,10,10,10,6,,0.00,2,,26
2013-1-14,30,22,14,12,11,7,86,63,40,30.28,30.22,30.17,10,10,10,15,8,16,0.00,4,,126
2013-1-15,30,22,15,18,14,10,80,68,55,30.21,30.18,30.14,10,10,10,10,4,,0.00,3,,292
2013-1-16,50,34,19,30,23,14,81,69,46,30.32,30.18,30.11,10,10,10,16,9,22,0.00,2,,305
2013-1-17,50,39,28,28,25,23,86,68,35,30.54,30.44,30.34,10,10,10,15,8,,0.00,0,,291
2013-1-18,59,46,32,28,27,27,80,59,29,30.41,30.25,30.09,10,10,10,31,17,37,0.00,0,,212
2013-1-19,59,44,30,25,22,18,75,47,22,30.27,30.16,30.05,10,10,10,17,11,18,0.00,0,,350
2013-1-20,60,43,26,28,22,14,86,50,17,30.27,30.18,30.08,10,10,10,18,8,23,0.00,0,,212
2013-1-21,44,30,17,27,19,12,93,69,42,30.36,30.26,30.17,10,10,10,18,9,16,0.00,0,,252
2013-1-22,62,45,28,30,24,19,80,52,20,30.17,30.13,30.08,10,10,10,15,10,,0.00,0,,210
2013-1-23,71,48,24,30,25,16,93,56,12,30.22,30.15,30.09,10,10,10,14,8,17,0.00,0,,227
2013-1-24,35,30,26,32,26,23,100,85,70,30.23,30.13,30.03,10,6,1,14,7,,0.00,3,,60
2013-1-25,53,38,23,28,24,21,93,65,30,30.24,30.16,30.04,10,8,2,12,6,16,0.00,0,,56
2013-1-26,59,44,30,34,28,23,80,58,31,30.17,30.05,29.92,10,9,7,24,13,32,0.00,3,Rain,172
2013-1-27,71,56,41,45,35,30,100,56,23,29.92,29.85,29.78,10,9,4,30,19,39,0.00,2,,210
2013-1-28,71,58,44,34,31,27,61,39,20,29.87,29.79,29.71,10,10,7,31,17,39,0.00,0,,228
2013-1-29,53,40,26,32,29,21,93,65,38,29.79,29.65,29.53,10,9,1,26,13,34,0.00,6,Snow,302
2013-1-30,39,29,19,21,17,12,80,63,33,30.07,29.98,29.80,10,10,10,22,16,29,0.00,1,,284
2013-1-31,55,40,26,23,20,12,80,54,21,30.26,30.10,29.99,10,10,10,20,12,24,0.00,0,,295